Location: Unspecified
(0.0000°N, 0.0000°E)
Time: 06:09:42
(UTC+02:00)

Cosmos 2219 - Visible Passes

Search period start: 17 October 2017 00:00
Search period end: 27 October 2017 00:00
Orbit: 833 x 861 km, 71.1° (Epoch: 16 October)

Date Brightness Start Highest point End Pass type
(mag) Time Alt. Az. Time Alt. Az. Time Alt. Az.
17 Oct 3.2 20:07:17 10° S 20:13:01 74° ESE 20:18:44 10° NNE visible
18 Oct 5.9 07:10:31 10° NNE 07:14:20 19° ENE 07:18:09 10° ESE visible
19 Oct 5.9 06:57:09 10° NNE 07:00:52 18° ENE 07:04:34 10° ESE visible
20 Oct 5.9 06:43:46 10° NE 06:47:23 17° ENE 06:50:59 10° ESE visible
21 Oct 5.9 06:30:24 10° NE 06:33:54 17° ENE 06:37:24 10° ESE visible
22 Oct 5.9 06:17:03 10° NE 06:20:26 16° ENE 06:23:48 10° ESE visible
23 Oct 5.9 06:03:42 10° NE 06:06:57 16° ENE 06:10:12 10° ESE visible
24 Oct 5.9 05:50:21 10° NE 05:53:28 15° ENE 05:56:36 10° ESE visible
25 Oct 5.9 05:37:01 10° NE 05:40:00 15° ENE 05:42:58 10° ESE visible
26 Oct 5.9 05:23:41 10° NE 05:26:31 14° ENE 05:29:21 10° ESE visible
26 Oct 3.7 07:05:15 10° NW 07:10:23 38° WSW 07:15:32 10° S visible
